This is the latest recevied weather packets stored in our database for station/object KF4CQ. If no packets are shown the sender has not sent any weather packets the latest 10 day(s).
| Time | Temp. | Humidity | Pressure | Rain* | Wind** | Luminosity | Snow |
|---|---|---|---|---|---|---|---|
| 1778004066 | 27.78° C | 53% | 1017.1 hPa | 0 mm | - | 152 W/m² | - |
| 1778003762 | 27.78° C | 54% | 1017.3 hPa | 0 mm | - | 174 W/m² | - |
| 1778003458 | 27.78° C | 54% | 1017.4 hPa | 0 mm | - | 187 W/m² | - |
| 1778003155 | 27.78° C | 54% | 1017.5 hPa | 0 mm | - | 179 W/m² | - |
| 1778002851 | 28.33° C | 53% | 1017.5 hPa | 0 mm | - | 169 W/m² | - |
| 1778002548 | 28.33° C | 53% | 1017.5 hPa | 0 mm | - | 185 W/m² | - |
| 1778002245 | 28.89° C | 51% | 1017.5 hPa | 0 mm | - | 191 W/m² | - |
| 1778001943 | 28.89° C | 50% | 1017.3 hPa | 0 mm | - | 245 W/m² | - |
| 1778001639 | 29.44° C | 50% | 1017.6 hPa | 0 mm | - | 816 W/m² | - |
| 1778001334 | 30° C | 49% | 1017.6 hPa | 0 mm | - | 802 W/m² | - |
| 1778001031 | 30° C | 51% | 1017.7 hPa | 0 mm | - | 796 W/m² | - |
| 1778000728 | 29.44° C | 49% | 1017.8 hPa | 0 mm | - | 843 W/m² | - |
| 1778000424 | 29.44° C | 51% | 1017.7 hPa | 0 mm | - | 858 W/m² | - |
| 1778000119 | 28.89° C | 52% | 1017.7 hPa | 0 mm | - | 863 W/m² | - |
| 1777999815 | 28.89° C | 52% | 1017.9 hPa | 0 mm | - | 822 W/m² | - |
| 1777999511 | 28.89° C | 51% | 1018 hPa | 0 mm | - | 818 W/m² | - |
| 1777999210 | 30° C | 49% | 1017.8 hPa | 0 mm | - | 818 W/m² | - |
| 1777998908 | 29.44° C | 51% | 1018 hPa | 0 mm | - | 802 W/m² | - |
| 1777998604 | 28.89° C | 53% | 1018 hPa | 0 mm | - | 783 W/m² | - |
| 1777998297 | 28.33° C | 53% | 1018.2 hPa | 0 mm | - | 737 W/m² | - |
| 1777997994 | 28.89° C | 53% | 1018 hPa | 0 mm | - | 753 W/m² | - |
| 1777997690 | 28.33° C | 54% | 1017.9 hPa | 0 mm | - | 759 W/m² | - |
| 1777997388 | 28.33° C | 56% | 1018 hPa | 0 mm | - | 743 W/m² | - |
| 1777997086 | 27.78° C | 54% | 1018.1 hPa | 0 mm | - | 754 W/m² | - |
| 1777996783 | 27.78° C | 58% | 1018 hPa | 0 mm | - | 259 W/m² | - |
* Rain latest hour (hover to see other rain measurements)
** Current wind speed in m/s (hover to see current wind gust speed)